PALMA DE MALLORCA / SON current weather conditions

sailwx.info

Wind from 130 at 8 knots

Air temperature 35.0° C
Dewpoint 16.0° C

Last reported at 2015-Jul-04 17:30 UTC.
Time now 2015-Jul-04 19:04 UTC

Location: N 39°33' E 002°44'.
View on Google Maps.

See reports from other nearby stations

  
Tides and Currents Weather Stations Pressure Air Temp Water Temp Dewpoint Dewpoint Depression Visibility Wind Speed Wind Dir Waves Ship Positions
date/time (UTC)wind fromknots sea level pressurealtimeterstation pressurevisibilityair tempwater tempwave heightnotes
2015-Jul-04 17:30 130 8 35.0
2015-Jul-04 17:00 150 8 36.0
2015-Jul-04 16:30 160 8 37.0
2015-Jul-04 16:00 150 9 37.0
2015-Jul-04 15:30 140 9 37.0
2015-Jul-04 15:00 150 10 38.0
2015-Jul-04 14:30 140 10 38.0
2015-Jul-04 14:00 160 10 38.0
2015-Jul-04 13:30 160 8 39.0
2015-Jul-04 13:00 150 9 37.0
2015-Jul-04 12:30 130 7 37.0
2015-Jul-04 12:00 160 6 37.0
2015-Jul-04 11:30 140 8 37.0
2015-Jul-04 11:00 150 9 37.0
2015-Jul-04 10:30 130 8 37.0
2015-Jul-04 10:00 130 7 36.0
2015-Jul-04 09:30 150 8 35.0
2015-Jul-04 09:00 110 6 34.0
2015-Jul-04 08:30 100 7 33.0
2015-Jul-04 08:00 080 5 33.0
2015-Jul-04 07:30 050 6 32.0
2015-Jul-04 07:00 070 7 30.0
2015-Jul-04 06:30 070 4 29.0
2015-Jul-04 06:00 070 3 27.0
2015-Jul-04 05:30 090 4 24.0
2015-Jul-04 05:00 090 4 24.0
2015-Jul-04 04:30 080 4 24.0
2015-Jul-04 04:00 090 5 24.0
2015-Jul-04 03:30 080 6 25.0
2015-Jul-04 03:00 080 4 25.0
2015-Jul-04 02:30 070 5 25.0
2015-Jul-04 02:00 070 6 27.0
2015-Jul-04 01:30 070 5 27.0
2015-Jul-04 01:00 060 7 27.0
2015-Jul-04 00:30 060 7 27.0
2015-Jul-04 00:00 060 8 27.0
2015-Jul-03 23:30 050 9 27.0
2015-Jul-03 23:00 060 6 27.0
2015-Jul-03 22:30 070 5 27.0
2015-Jul-03 22:00 070 6 27.0
2015-Jul-03 21:30 070 7 27.0
2015-Jul-03 21:00 070 7 28.0
2015-Jul-03 20:30 060 7 27.0
2015-Jul-03 20:00 060 7 28.0
2015-Jul-03 19:30 070 10 29.0
2015-Jul-03 19:00 060 10 30.0
2015-Jul-03 18:30 080 11 32.0
2015-Jul-03 18:00 080 10 32.0
2015-Jul-03 17:30 100 8 33.0
2015-Jul-03 17:00 110 10 34.0
2015-Jul-03 16:30 100 9 35.0
2015-Jul-03 16:00 130 12 35.0
2015-Jul-03 15:30 130 12 36.0
2015-Jul-03 15:00 120 11 37.0
2015-Jul-03 14:30 140 12 37.0
2015-Jul-03 14:00 130 12 38.0
2015-Jul-03 13:30 120 12 37.0
2015-Jul-03 13:00 130 11 37.0
2015-Jul-03 12:30 120 11 37.0
2015-Jul-03 12:00 150 10 37.0
2015-Jul-03 11:30 140 12 37.0
2015-Jul-03 11:00 130 11 36.0
2015-Jul-03 10:30 150 11 35.0
2015-Jul-03 10:00 140 9 35.0
2015-Jul-03 09:30 090 9 34.0
2015-Jul-03 09:00 070 10 33.0
2015-Jul-03 08:30 080 8 32.0
2015-Jul-03 08:00 070 9 31.0
2015-Jul-03 07:30 080 8 30.0
2015-Jul-03 07:00 060 9 29.0
2015-Jul-03 06:30 060 5 28.0
2015-Jul-03 06:00 050 4 26.0
2015-Jul-03 05:30 24.0
2015-Jul-03 05:00 23.0
2015-Jul-03 04:30 070 5 24.0
2015-Jul-03 04:00 060 3 24.0
2015-Jul-03 03:30 070 6 25.0
2015-Jul-03 03:00 080 5 25.0
2015-Jul-03 02:30 070 5 24.0
2015-Jul-03 02:00 070 6 25.0
2015-Jul-03 01:30 070 5 24.0
2015-Jul-03 01:00 070 7 24.0
2015-Jul-03 00:30 060 6 24.0
2015-Jul-03 00:00 060 5 25.0
2015-Jul-02 23:30 080 4 5.425.0
2015-Jul-02 23:00 060 4 5.426.0
2015-Jul-02 22:30 050 4 5.426.0
2015-Jul-02 22:00 060 8 5.427.0
2015-Jul-02 21:30 050 9 5.427.0
2015-Jul-02 21:00 060 11 5.427.0
2015-Jul-02 20:30 070 14 5.427.0
2015-Jul-02 20:00 070 11 5.428.0
2015-Jul-02 19:30 090 9 5.429.0
2015-Jul-02 19:00 080 9 5.430.0